Flight Information

DEPARTURE
SAN DIEGO/EL CAJON, CA
Elevation:
387
Runways:
17/35 - 4145x100 - ASPH-G
9L/27R - 5342x100 - ASPH-G
9R/27L - 2738x60 - ASPH-G
Active PE Departure:
27L - 27R
Current PE ATIS:
S
Altimeter:
29.88
Remarks:
ATIS:
125.45 619-449-1228
Clearance Delivery:
125.1
Ground:
121.7
Tower:
120.7 123.8
DESTINATION
,
Elevation:
TPA:
1000 (est.)


6744 NM75° True-13° Var61° HDG

Flight Plan:
(click to file on line)

1. Type
2. Aircraft Identification
3. Aircraft Type / Special Equipment
4. True Airspeed
kts
5. Departure Airport
(ICAO code)
6. Arriving Airport
(ICAO code)
7. Cruising Altitude
ft
8. Alternate Airport
(ICAO code)
9. Route of Flight
10. Remarks


00:00:00 Departure ATIS: Destination ATIS:

Clearance Limit:
Route:
Altitude: Expect in minutes
Frequency:
Transponder: (7500 Hijack / 7600 Lost Comms / 7700 Emergency)


KSEE 110415Z AUTO VRB04KT 9SM BKN018 BKN026 14/11 A2989 RMK AO2
Time: 2021-04-11T04:15:00Z
1618115237
Winds: variable
Visibility: 9.0 sm
Clouds (AGL): BKN 1800
BKN 2600
Temperature: 14.0 C
Dew Point: 11.0 C
Pressure: 29.890747 in Hgbr


Notes:

Data extracted from FAA Digital Chart Supplement. Effective: 0901Z Thursday, Feb 25, 2021 to 0901Z Thursday, APR 22, 2021
Current ATIS data is provided courtisy of PilotEdge.